Location: Unspecified
(0.0000°N, 0.0000°E)
Time: 20:48:10
(UTC+00:00)

STARLINK-11520 [DTC] - Visible Passes

Search period start: 06 March 2026 00:00
Search period end: 16 March 2026 00:00
Orbit: 354 x 359 km, 43.0° (Epoch: 6 March)

Date Brightness Start Highest point End Pass type
(mag) Time Alt. Az. Time Alt. Az. Time Alt. Az.
12 Mar ? 19:57:29 10° WNW 19:57:39 11° WNW 19:57:39 11° WNW visible
13 Mar ? 18:46:15 10° NNW 18:48:47 28° NE 18:50:32 16° E visible
14 Mar ? 19:09:55 10° WNW 19:12:34 35° SW 19:14:34 15° SSE visible
